GEFSSE_con_cape1000_054.txt.gz
Probability
35 61 100 100 100 100 100 100 97 94 94 97 100 94 74 77 77 77 81 94 100 97 97 94 90 87 87 84 84 90 90 90 87 84 84 90 87 87 90 87 94 61 94
52 77 100 100 100 100 100 100 97 97 100 100 100 97 77 68 61 52 55 55 68 77 74 81 81 74 68 74 61 68 74 74 68 55 61 74 77 81 84 77 97 87 97
55 81 100 100 100 100 100 100 100 100 100 100 100 97 77 58 45 26 26 29 32 39 39 45 42 39 29 32 42 42 45 45 45 45 71 48 39 68 55 68 87 90 87
55 65 97 100 100 100 100 100 100 100 100 100 100 94 84 65 35 23 6 3 6 10 10 16 19 16 13 16 23 16 23 23 35 55 77 81 26 61 74 35 58 68 74
48 35 100 100 100 100 100 100 100 100 100 100 100 94 84 77 39 23 23 19 10 3 3 0 3 3 3 6 6 6 10 10 23 26 55 74 58 87 84 52 39 35 48
52 58 100 100 100 100 100 100 100 100 100 97 94 94 87 77 48 48 48 45 26 23 19 10 10 10 10 13 10 6 3 3 6 3 10 45 68 100 94 84 68 68 71
61 84 100 100 100 100 100 100 100 100 97 94 94 94 94 84 74 52 48 45 52 52 35 26 26 26 29 32 32 29 26 23 23 16 26 48 97 100 100 90 90 90 87
74 94 100 100 100 100 100 100 100 100 97 90 90 94 94 94 94 87 84 74 81 77 81 81 81 87 84 87 87 84 81 61 19 10 26 61 100 100 100 100 100 100 100
87 94 94 100 100 100 100 100 100 100 97 94 94 94 100 100 100 94 90 87 97 97 94 94 97 100 100 100 100 100 97 97 84 35 16 61 100 100 100 97 97 100 100
90 100 97 97 100 100 100 100 100 100 100 100 100 100 100 100 100 100 100 100 97 97 97 100 100 100 100 100 100 100 100 100 97 52 35 71 100 100 100 100 100 100 100
84 97 97 97 100 100 100 100 100 100 100 100 100 100 100 100 100 100 100 100 100 100 100 100 100 100 100 100 100 100 100 100 77 68 65 87 100 100 100 100 100 100 100
87 84 97 100 100 100 97 100 100 100 100 100 100 100 100 100 100 100 100 100 100 100 100 100 100 100 100 100 100 100 100 97 84 61 77 100 100 100 100 100 100 100 100
97 94 94 100 100 100 100 100 100 100 100 100 100 100 100 100 100 100 100 100 100 100 100 100 100 100 100 100 100 100 97 100 94 84 84 97 100 100 100 100 100 100 100
94 97 97 100 100 100 100 100 100 100 100 100 100 100 100 100 100 100 100 100 100 100 100 100 100 100 97 100 100 100 100 100 97 87 97 100 100 100 100 100 100 100 100
100 100 100 100 100 100 100 100 100 100 100 100 100 100 100 100 100 100 100 100 97 97 100 100 100 94 94 97 100 100 94 100 94 100 97 97 97 97 100 100 100 100 100
100 100 100 100 100 100 100 100 100 100 100 100 100 100 100 100 100 100 100 100 100 100 94 94 97 97 94 97 97 94 94 97 94 94 94 97 97 97 100 100 100 100 100
100 100 100 100 100 100 100 100 100 97 97 97 100 100 100 100 100 100 100 100 100 94 94 94 94 94 97 94 94 90 90 94 84 87 87 94 94 100 97 97 100 100 100
100 100 97 97 97 97 100 100 100 97 97 97 97 100 100 100 100 100 100 97 97 97 94 94 94 97 94 94 87 90 90 87 87 81 81 87 81 74 87 97 100 100 100
100 100 97 97 97 97 90 94 90 94 94 97 90 94 90 90 90 90 94 97 97 90 90 90 94 94 90 90 87 84 77 84 87 81 81 77 81 81 68 81 94 100 100
97 97 100 100 97 84 84 84 90 90 87 84 87 97 74 74 77 84 87 90 90 87 90 94 94 94 94 90 77 74 74 74 84 81 77 71 74 74 61 65 68 65 87
84 90 90 87 84 90 87 97 90 94 84 74 81 74 42 52 61 61 65 74 71 68 81 74 77 74 81 90 84 87 84 77 77 77 77 68 71 71 61 68 68 55 52
84 77 84 81 77 81 81 100 94 87 81 71 65 71 52 39 42 23 68 68 68 71 71 81 84 77 77 81 84 68 61 58 77 68 74 68 71 74 61 58 61 65 48
68 71 77 84 81 84 90 90 90 97 100 90 87 77 71 42 32 45 48 71 71 71 68 71 71 71 61 71 74 77 58 42 55 61 68 68 68 71 68 65 68 74 61
61 65 74 71 74 81 87 94 90 90 94 90 94 87 74 58 48 48 45 58 71 68 68 61 39 55 45 45 45 65 68 58 35 32 42 55 65 65 71 65 58 65 48
35 45 68 68 71 77 84 90 97 90 90 90 90 94 97 87 84 58 52 48 55 65 71 65 65 58 48 39 35 48 45 58 55 26 13 39 61 61 77 81 77 71 61
29 29 39 52 55 68 74 74 84 84 90 94 94 94 90 90 90 81 52 52 55 61 61 61 61 48 48 52 39 29 35 32 42 42 13 32 35 55 61 71 68 74 68

GEFSSE_con_cape1000_060.txt.gz
Probability
35 97 100 100 100 94 90 90 94 84 87 90 94 97 97 97 100 100 100 100 100 97 97 97 94 94 90 94 94 97 97 97 97 97 97 97 100 100 100 100 100 94 100
55 97 100 100 100 97 94 94 94 94 97 90 94 100 100 100 100 100 100 97 97 97 94 90 94 87 87 84 87 87 90 90 90 94 90 90 94 100 100 100 100 97 100
68 97 100 100 100 97 97 97 97 94 100 97 97 97 94 87 90 94 94 97 97 97 87 87 77 68 68 71 68 68 71 71 81 84 77 61 90 90 100 100 100 100 100
81 97 100 100 100 97 97 97 100 97 97 100 100 94 94 81 84 74 74 77 77 68 55 55 48 35 32 42 39 39 48 55 68 68 32 35 35 90 100 100 100 100 100
77 87 100 100 100 100 97 100 100 100 100 97 97 94 90 90 87 77 45 42 45 45 42 42 29 29 26 23 19 23 23 23 26 29 16 6 3 94 97 97 100 100 100
58 90 100 100 100 100 100 100 100 100 100 100 100 97 94 90 87 84 77 65 52 35 26 19 32 32 26 23 16 16 16 10 13 3 3 0 0 90 100 100 97 97 97
68 94 100 100 100 100 100 100 100 100 100 100 100 100 97 97 97 94 90 77 77 65 65 58 52 45 48 45 39 35 35 26 6 0 0 0 0 97 100 100 100 100 100
77 94 100 100 100 100 100 100 100 100 100 100 100 100 100 100 100 100 97 97 90 87 87 87 94 84 74 84 71 61 58 48 32 13 0 0 3 90 100 100 100 100 100
71 90 100 100 100 100 100 100 100 100 100 100 100 100 100 100 100 100 97 97 97 97 100 100 100 100 100 100 100 94 94 94 77 32 29 6 35 97 100 100 100 100 100
61 81 94 97 100 100 100 100 100 100 100 100 100 100 100 100 100 100 100 100 100 100 100 100 100 100 100 100 100 100 100 100 94 74 45 19 71 100 100 100 100 100 100
58 65 87 94 97 97 97 100 100 100 100 100 100 100 100 100 100 100 100 100 100 100 100 100 100 100 100 100 100 100 100 100 84 81 58 61 94 100 100 100 100 100 100
61 45 68 81 87 84 94 94 100 100 100 100 100 100 100 100 100 100 100 100 100 100 100 100 100 100 100 100 100 100 100 97 84 81 71 94 97 100 100 100 100 100 100
61 55 42 61 71 74 68 71 97 97 97 100 100 100 100 100 97 100 94 97 97 100 100 100 100 100 100 100 94 94 94 94 90 77 74 94 97 97 100 100 100 100 100
81 65 58 58 68 68 65 81 87 87 90 94 97 97 97 97 97 90 87 90 90 90 100 100 100 100 97 97 90 87 90 90 87 68 55 94 97 97 97 100 100 100 100
94 97 84 81 90 84 87 87 87 87 97 90 87 90 94 97 97 97 84 84 94 90 90 90 87 90 87 87 84 81 77 81 84 81 71 87 94 94 97 97 100 97 97
71 90 94 94 94 97 97 94 90 94 94 97 94 97 97 97 97 90 68 58 61 74 81 77 74 77 74 68 74 74 74 74 74 61 68 71 94 94 94 97 97 97 100
39 58 90 94 94 94 90 90 90 87 87 81 87 94 94 87 87 74 68 65 58 52 61 61 61 58 55 55 55 58 61 68 71 74 71 65 71 81 90 94 94 97 100
23 42 58 77 77 84 81 84 87 81 81 71 71 74 77 77 77 74 58 52 58 55 52 52 45 42 45 45 39 39 42 48 55 52 55 61 55 61 74 94 94 100 100
26 35 35 42 58 61 71 68 68 65 65 58 61 55 52 55 55 45 35 39 32 29 32 42 35 32 32 29 32 29 26 32 39 48 52 48 45 42 45 61 87 97 94
19 19 19 16 29 32 48 48 48 52 42 45 42 29 32 32 32 26 26 19 23 23 13 13 16 16 19 13 19 16 6 13 13 29 32 45 42 42 35 39 48 68 90
6 10 6 13 19 19 32 26 23 26 26 19 26 23 23 23 19 13 10 10 10 10 10 13 10 6 3 3 3 0 0 0 6 13 19 29 23 32 29 32 39 39 45
10 3 6 6 3 10 13 13 16 16 13 10 16 16 13 10 6 10 10 10 10 10 10 6 6 6 3 0 0 0 0 0 0 0 3 10 6 10 19 35 26 23 19
6 6 3 3 3 3 6 6 10 3 3 3 6 10 10 6 6 3 3 6 6 3 3 3 3 3 0 0 0 0 0 0 0 0 0 0 3 6 0 3 19 16 16
0 3 3 0 0 0 3 3 6 3 3 3 0 0 6 6 3 3 3 3 3 3 3 3 3 0 0 0 0 0 0 0 3 0 0 0 0 0 0 0 10 6 10
0 0 0 0 0 0 0 3 6 6 3 0 3 3 6 6 0 0 0 0 0 0 0 0 0 0 0 0 0 0 0 0 0 0 0 0 0 0 0 0 0 3 3
0 0 0 0 0 0 0 0 0 3 6 6 0 0 0 0 0 0 0 0 0 0 0 0 0 0 0 0 0 0 0 0 0 0 0 0 0 0 0 0 0 0 3

GEFSSE_con_cape1000_066.txt.gz
Probability
3 74 100 94 90 90 90 97 94 100 100 100 100 100 100 100 100 100 100 100 100 100 97 97 94 97 100 100 97 100 100 97 97 100 100 100 100 100 100 100 87 90 100
10 77 100 94 90 90 94 90 94 97 100 100 100 100 100 100 100 100 100 100 100 100 97 94 94 90 90 94 97 97 97 97 97 97 97 97 100 100 100 97 81 97 100
39 87 97 94 90 90 94 90 97 100 97 100 100 100 100 100 100 100 100 100 100 94 94 90 87 84 84 87 90 94 94 94 94 90 90 87 97 100 100 100 90 100 100
65 84 90 94 90 94 97 97 100 100 100 100 100 100 100 100 100 100 100 100 97 90 84 74 68 68 74 74 77 77 81 90 94 87 61 77 87 97 100 100 100 100 100
71 84 94 94 94 97 97 97 100 100 100 100 97 97 97 94 97 97 94 90 87 84 71 68 61 58 61 61 65 68 68 71 74 58 23 39 45 87 97 100 100 100 100
81 87 94 100 94 97 97 97 100 100 100 100 100 97 97 94 94 90 84 84 77 77 71 71 71 65 61 52 45 48 45 45 52 26 10 6 19 61 100 100 100 100 97
87 90 97 100 100 100 100 100 100 100 100 100 100 100 100 100 100 97 97 90 87 87 77 74 74 68 71 68 61 58 52 39 32 6 0 0 10 58 94 100 100 100 100
87 90 100 100 100 100 100 100 100 100 100 100 100 100 100 100 100 100 100 97 100 100 97 97 94 94 94 87 87 77 58 45 35 26 23 16 16 48 77 100 100 100 100
94 97 100 100 100 100 100 100 100 100 100 100 100 100 100 100 100 100 100 100 100 100 100 100 97 97 97 97 97 90 81 71 55 39 29 26 26 58 94 100 100 100 100
94 97 100 100 100 100 100 100 100 100 100 100 100 100 100 100 100 100 100 100 100 100 100 100 100 100 100 100 100 100 100 97 87 77 68 65 68 81 94 100 97 100 97
97 97 97 100 100 100 100 100 100 100 100 100 100 100 100 100 100 100 100 100 100 100 100 100 100 100 100 100 100 100 100 100 94 87 81 81 87 97 97 97 97 97 97
81 97 97 100 100 100 100 100 100 100 100 100 100 100 100 100 100 100 100 100 100 100 100 100 100 100 100 97 97 100 100 97 94 94 94 94 97 97 94 94 94 97 100
71 81 94 97 97 97 100 90 100 100 100 100 100 100 100 100 100 100 100 100 100 97 97 100 100 97 97 97 97 97 94 97 97 97 94 97 97 97 94 94 94 94 100
48 61 68 87 87 84 84 77 74 90 100 100 100 100 100 100 100 100 97 97 97 94 90 90 94 97 94 94 97 97 94 97 94 90 90 97 97 97 94 90 94 94 100
58 58 52 55 71 71 71 61 65 71 77 90 90 90 90 94 90 87 84 74 84 74 77 87 87 90 94 94 94 94 84 90 90 87 90 90 97 97 94 90 90 97 94
48 42 39 39 45 48 48 48 52 58 68 71 81 84 87 87 87 81 77 65 58 58 65 71 77 84 77 81 84 84 90 84 87 84 87 84 87 97 97 97 94 87 87
39 35 35 35 35 32 39 42 48 42 42 58 68 74 81 77 77 71 58 45 39 39 29 39 48 48 61 58 65 61 61 65 71 74 74 84 81 87 90 94 94 90 87
23 23 26 29 26 32 35 35 29 35 48 48 48 55 65 65 65 52 45 39 29 26 23 19 19 19 29 26 23 26 32 42 42 42 58 61 68 61 74 87 94 94 90
23 16 16 13 16 16 19 23 23 23 35 42 35 42 45 52 55 35 26 26 19 13 13 16 10 6 6 10 13 13 10 13 19 26 39 42 45 48 58 58 84 87 84
13 13 19 10 10 10 13 10 10 19 26 26 29 26 29 26 23 16 19 16 16 16 3 3 3 0 0 0 3 6 6 3 3 6 10 19 29 39 42 55 65 65 68
6 3 3 3 3 6 6 6 10 10 6 3 10 10 10 3 6 6 13 13 6 10 3 0 0 0 0 0 0 0 0 0 3 3 3 10 13 13 26 42 52 55 52
3 3 3 6 3 3 3 3 3 3 0 0 0 3 3 3 6 10 6 13 10 6 3 3 3 0 0 0 3 0 0 0 0 0 0 0 6 13 16 19 26 35 35
3 3 3 3 0 0 0 0 0 0 0 0 0 0 3 6 6 3 3 10 3 3 6 3 0 0 0 0 0 0 0 0 0 0 0 0 0 3 0 6 6 10 29
3 3 3 0 0 0 0 0 0 0 0 0 0 0 0 0 0 3 3 3 3 3 3 0 0 0 0 0 0 0 0 0 0 0 0 0 0 0 0 0 0 0 13
0 0 0 0 0 0 0 0 0 0 0 0 0 0 0 0 0 0 0 0 0 0 0 0 0 0 0 0 0 0 0 0 0 0 0 0 0 0 0 0 0 0 3
0 0 0 0 0 0 0 0 0 0 0 0 0 0 0 0 0 0 0 0 0 0 0 0 0 0 0 0 0 0 0 0 0 0 0 0 0 0 0 0 0 3 3

GEFSSE_con_cape1000_072.txt.gz
Probability
10 81 97 97 97 100 100 100 100 100 100 100 100 100 100 100 100 97 100 100 97 97 97 100 100 100 100 97 100 100 100 100 100 100 100 97 100 100 100 90 90 77 100
19 87 97 97 97 97 100 100 100 100 100 100 100 100 100 100 100 100 100 100 97 97 97 94 90 94 90 90 97 100 97 97 100 100 100 100 100 100 97 74 97 90 97
32 87 97 97 97 97 100 100 100 100 100 100 100 100 100 100 100 97 100 100 100 90 90 90 81 84 87 87 90 94 97 97 97 97 94 68 61 100 94 77 94 97 97
55 87 94 97 97 97 100 100 100 100 100 100 100 100 100 100 97 100 100 97 94 84 84 77 74 65 81 87 87 90 97 97 97 90 77 58 39 81 97 84 90 94 90
71 94 97 97 97 97 100 100 100 100 100 100 100 100 100 100 100 100 94 94 87 84 77 65 61 55 61 81 84 84 84 87 94 87 52 65 87 90 94 94 90 90 97
74 90 97 97 97 100 100 100 100 100 100 100 100 100 100 100 100 97 90 87 84 84 74 65 52 52 58 65 71 68 74 84 71 45 45 61 90 100 100 100 97 97 97
48 74 97 97 100 100 100 100 100 100 100 100 100 100 100 100 97 87 84 84 84 84 77 81 74 68 68 61 65 65 65 61 71 26 39 42 84 90 90 100 100 100 97
35 58 97 100 100 100 100 100 100 100 100 100 100 97 97 97 97 94 94 90 87 87 87 87 81 81 87 87 84 84 84 81 29 13 35 39 77 68 77 100 100 100 100
19 61 100 100 100 100 100 100 100 100 100 100 100 100 100 97 100 100 100 97 97 100 100 100 97 97 97 94 97 94 84 68 32 16 19 42 68 68 74 94 100 100 100
48 65 97 100 100 100 100 100 100 100 100 100 100 100 100 100 100 100 100 100 100 100 100 100 100 100 100 100 97 94 94 77 39 16 35 45 90 77 81 97 100 100 100
81 90 97 100 100 100 100 100 100 97 100 100 100 100 100 97 71 100 97 100 100 100 100 100 100 100 100 100 100 100 100 58 23 29 39 74 84 81 94 100 100 100 100
100 100 100 100 100 97 87 100 100 97 97 100 100 100 100 100 100 94 97 100 100 100 100 100 100 100 100 100 100 100 77 61 52 39 61 100 94 94 97 100 100 100 100
100 100 100 100 100 97 97 97 97 97 97 97 97 100 100 100 100 97 94 100 100 100 100 100 100 100 100 100 100 97 84 61 61 65 77 100 100 97 97 100 100 100 100
97 100 100 100 100 97 97 94 94 94 94 94 94 97 100 100 100 100 100 100 100 100 100 100 100 100 97 94 90 84 87 84 77 84 97 100 100 100 100 100 100 100 100
97 97 97 94 90 90 94 94 87 87 84 81 97 90 90 90 97 97 97 100 100 94 97 97 94 97 97 94 90 90 90 87 84 81 94 97 97 100 100 100 97 97 100
94 94 87 87 94 94 94 94 87 77 81 74 77 81 87 87 87 90 94 97 94 94 90 94 87 90 94 94 87 84 94 87 90 94 90 94 97 97 94 94 94 97 100
90 87 84 84 84 87 94 84 74 71 68 71 68 61 68 81 84 87 87 90 97 87 84 90 77 84 87 87 90 94 94 90 87 100 94 94 94 90 94 94 97 97 97
90 87 87 68 74 81 81 84 65 61 61 55 48 48 52 61 58 71 71 77 77 84 84 84 81 81 84 77 84 81 84 97 94 97 94 90 87 87 84 87 87 87 94
87 87 87 74 65 58 61 71 65 71 68 52 42 42 52 45 52 52 61 68 74 71 58 52 55 68 74 74 52 68 68 77 74 71 71 71 77 77 74 81 90 90 81
61 65 68 61 65 58 58 58 58 48 45 32 35 45 42 42 35 45 48 45 48 52 52 55 52 65 61 58 29 29 45 58 55 52 52 45 52 61 58 61 65 74 81
52 58 58 65 61 58 52 48 55 32 42 35 35 29 32 29 29 39 29 39 48 39 39 23 23 29 39 45 26 19 13 19 26 29 32 29 19 29 42 52 71 71 84
42 45 42 42 45 48 48 61 52 45 39 35 26 29 23 16 16 19 32 26 35 48 29 29 39 29 26 19 13 10 10 6 6 6 13 13 19 23 29 32 55 74 71
29 29 16 35 29 32 29 35 42 42 42 26 29 23 13 6 16 26 23 29 32 26 29 39 45 35 29 16 16 3 3 3 3 3 6 10 23 26 32 29 29 45 61
16 13 26 26 26 23 23 29 29 26 23 19 19 16 13 10 3 13 13 16 26 26 32 29 19 26 39 23 19 23 3 0 0 0 0 0 10 19 16 10 10 29 39
10 10 13 19 19 19 19 19 19 13 10 6 10 10 6 3 3 3 10 16 16 23 19 23 26 32 35 29 23 16 6 6 3 0 0 0 3 3 6 10 3 10 16
6 6 10 13 16 16 16 16 16 16 13 13 10 10 10 6 6 0 3 6 13 16 19 29 29 35 42 39 29 26 19 16 6 0 0 0 0 0 3 0 3 10 16

GEFSSE_con_cape1000_078.txt.gz
Probability
65 74 100 100 100 100 100 100 100 100 100 100 100 100 100 100 94 94 100 97 97 100 100 100 94 97 87 94 100 100 100 100 100 100 100 100 94 94 97 100 100 100 100
87 84 100 100 100 100 100 100 100 100 100 100 100 100 100 100 100 100 100 97 97 97 97 94 97 97 90 97 97 97 100 100 100 100 100 100 97 97 100 100 100 100 100
87 94 100 100 100 100 100 100 100 100 100 100 100 100 100 100 100 97 100 97 94 94 94 90 90 90 87 90 94 97 97 97 97 97 97 61 77 90 97 97 100 100 100
94 94 100 100 100 100 100 100 100 100 100 100 100 100 100 100 100 97 100 97 94 87 81 77 81 87 84 90 90 97 94 90 90 97 100 74 35 90 94 97 97 97 97
94 90 100 100 100 100 100 100 100 100 100 100 100 100 100 100 100 100 94 94 87 77 71 65 65 68 74 77 90 90 97 87 94 94 97 84 58 97 94 94 94 97 97
84 94 100 100 100 100 100 100 100 100 100 100 100 100 100 100 100 100 90 90 84 77 65 61 61 61 65 68 74 74 77 77 81 90 94 94 74 100 97 94 94 90 87
87 100 100 100 100 100 100 100 100 100 100 100 100 100 100 100 100 97 87 84 81 77 77 71 58 65 61 65 65 65 68 74 77 77 84 100 97 100 100 97 94 97 97
90 100 100 100 100 100 100 100 100 100 100 100 100 100 100 100 100 97 90 84 81 81 81 77 77 77 77 77 77 81 81 77 55 45 77 97 100 100 100 100 100 100 97
97 100 100 100 100 100 100 100 100 100 100 100 100 100 100 100 100 100 97 94 90 87 90 90 90 94 94 94 97 97 94 90 77 35 32 94 100 100 100 100 100 100 100
94 100 100 100 100 100 100 100 100 100 100 100 100 100 100 100 100 100 100 100 97 97 97 100 100 100 97 97 97 97 97 94 39 19 26 87 100 100 100 100 100 100 100
97 100 100 100 100 100 100 100 100 100 100 100 100 100 100 100 100 100 100 100 100 100 100 100 100 100 100 100 100 100 97 68 23 13 19 87 100 100 100 100 97 100 100
97 100 100 100 100 100 100 100 100 100 100 100 100 100 100 100 100 97 100 100 100 100 100 100 100 100 100 100 100 100 94 55 32 26 32 97 100 100 100 100 100 100 100
100 100 100 100 100 100 100 100 100 100 100 100 100 100 100 100 100 100 97 100 100 100 100 100 100 100 97 84 87 97 81 52 39 35 65 94 100 100 100 100 100 100 100
100 100 97 100 100 100 100 100 97 97 97 97 97 97 97 100 100 100 100 100 100 94 94 94 97 97 94 87 81 87 84 61 61 61 81 90 97 100 100 100 100 100 100
100 100 100 100 100 100 97 97 97 97 97 97 97 97 97 100 100 97 100 100 94 90 90 87 87 90 94 90 87 84 87 84 68 77 81 87 84 90 100 100 100 100 100
97 100 100 100 97 97 97 97 97 97 97 94 94 100 90 94 94 97 94 94 97 84 81 81 84 81 81 84 84 81 87 87 84 74 77 81 87 90 100 100 100 100 100
94 97 97 97 94 97 97 97 97 97 84 84 81 84 81 74 81 77 74 77 77 77 81 77 77 81 74 77 74 77 81 77 81 77 77 74 77 87 97 100 100 100 100
97 97 97 87 90 94 100 100 97 97 94 90 87 87 71 65 58 61 65 65 65 55 58 68 68 68 65 68 74 68 61 71 74 68 74 77 71 74 90 100 100 100 100
90 90 97 94 94 97 90 94 94 87 87 90 84 77 68 65 52 55 55 48 45 48 52 35 52 48 55 58 58 55 65 52 65 68 71 68 77 77 84 84 94 100 100
90 97 97 97 97 94 90 97 90 84 77 84 71 68 68 61 55 42 42 39 35 35 35 29 35 45 45 55 32 26 45 45 55 55 61 65 68 77 74 87 84 87 100
81 87 87 90 94 94 90 74 77 74 77 77 68 61 58 45 39 42 42 48 29 23 26 23 32 32 32 48 32 23 23 26 29 42 45 45 52 58 68 84 77 77 74
61 58 74 65 58 71 81 81 77 71 74 68 65 58 55 42 39 29 32 32 29 26 26 26 32 29 29 32 23 13 6 13 32 10 35 42 29 42 48 55 74 81 77
35 39 32 58 58 55 55 55 48 58 55 58 48 39 26 23 26 26 26 32 23 26 23 19 29 26 19 29 19 10 6 3 0 16 26 23 29 26 29 42 55 68 68
26 23 35 42 42 35 52 48 42 29 29 35 42 35 19 19 19 16 23 19 23 23 19 13 13 23 23 16 16 19 13 10 0 0 13 23 29 26 23 23 19 68 65
6 16 23 35 35 39 35 39 42 32 19 16 19 16 19 10 6 0 6 3 10 10 10 10 13 10 16 13 10 16 10 23 13 3 0 6 16 23 32 42 42 42 48
13 13 13 26 42 45 39 39 32 39 32 26 19 13 16 16 10 3 0 6 0 0 3 13 13 13 16 19 13 16 23 16 13 0 0 6 3 13 19 32 35 42 35

GEFSSE_con_cape1000_084.txt.gz
Probability
84 100 100 100 100 100 100 100 100 100 100 100 100 100 100 100 100 100 100 100 100 100 100 100 97 100 100 100 100 100 100 100 100 100 100 100 100 100 100 100 100 97 100
87 100 100 100 100 100 100 100 100 100 100 100 100 100 100 100 100 100 100 100 100 100 97 97 97 97 100 100 100 100 100 100 100 100 100 100 100 100 100 100 100 100 100
97 100 100 100 100 100 100 100 100 100 100 100 100 100 100 100 100 100 100 100 100 97 97 97 97 97 97 97 97 100 100 100 97 100 100 81 100 100 100 100 100 100 100
97 100 100 100 100 100 100 100 100 100 100 100 100 100 100 100 100 100 100 100 97 97 97 97 97 94 94 97 97 97 97 97 97 97 45 58 94 100 100 100 100 100 100
97 100 100 100 100 100 100 100 100 100 100 100 100 100 100 100 100 100 100 97 94 94 97 97 97 97 94 94 97 97 97 97 94 87 48 26 77 100 100 100 100 100 100
97 97 100 100 100 100 100 100 100 100 100 100 100 100 100 100 100 100 100 100 94 94 94 94 94 90 94 94 90 90 87 84 84 65 35 35 81 100 100 97 97 97 100
97 100 100 100 100 100 100 100 100 100 100 100 100 100 100 100 100 100 100 100 94 94 94 94 90 94 90 90 87 81 77 74 65 42 16 26 81 100 100 100 97 97 97
97 100 100 100 100 100 100 100 100 100 100 100 100 100 100 100 100 100 100 100 100 94 94 90 90 94 87 87 84 87 84 81 65 52 26 13 90 100 100 100 100 97 97
97 100 100 100 100 100 100 100 100 100 100 100 100 100 100 100 100 100 100 100 100 100 90 90 90 90 87 90 90 90 90 90 68 52 35 16 100 100 100 100 100 100 100
100 100 100 100 100 100 100 100 100 100 100 100 100 100 100 100 100 100 100 100 100 100 97 97 97 100 100 100 97 97 97 97 71 45 29 19 100 100 100 100 100 100 100
100 100 100 100 100 100 100 100 100 100 100 100 100 100 100 100 100 100 100 100 100 100 100 100 100 100 100 100 100 97 97 84 42 23 19 35 100 100 100 100 100 100 100
90 100 100 100 100 100 100 100 100 100 100 100 97 97 97 90 84 97 94 100 97 97 97 97 100 100 100 97 97 100 97 71 32 26 13 48 94 100 100 100 100 100 100
87 87 97 97 97 97 97 97 97 97 94 94 94 94 90 87 84 94 87 87 94 97 97 97 97 97 97 90 90 87 87 74 42 29 13 52 100 100 100 100 100 100 100
87 90 90 94 97 97 97 97 97 97 94 94 94 94 94 87 81 71 68 74 81 81 90 87 87 87 84 84 81 71 77 68 52 19 16 58 87 97 100 100 100 100 100
77 81 81 90 94 94 94 94 94 90 87 84 81 84 84 77 68 61 52 55 58 65 58 61 58 55 68 74 74 68 55 55 48 26 16 52 84 90 97 100 94 97 97
61 77 87 87 87 84 87 87 81 81 74 65 65 65 58 55 52 39 23 23 23 29 45 48 45 45 45 45 48 39 35 39 42 26 23 45 71 81 84 87 94 90 94
58 61 68 77 71 71 68 71 71 65 61 45 39 32 29 29 23 26 19 19 13 13 10 13 13 19 16 16 16 23 23 26 26 19 23 32 55 84 81 81 90 90 90
52 55 58 68 52 52 55 48 48 35 35 26 29 26 32 26 13 13 13 13 13 10 6 6 3 3 3 3 3 3 10 6 13 13 10 23 26 39 58 74 84 84 90
45 45 39 39 35 42 48 45 42 35 32 26 29 19 13 19 13 13 6 3 3 3 3 3 3 3 3 3 3 0 0 0 3 6 16 16 16 23 23 39 71 74 87
26 29 35 35 35 29 26 26 26 26 23 19 13 13 16 13 10 3 0 0 0 0 0 0 0 0 0 0 0 0 0 0 3 3 0 3 6 23 16 13 42 58 81
35 32 19 19 19 16 19 23 16 16 6 6 6 10 10 6 6 6 3 3 0 0 0 0 0 0 0 0 0 0 0 0 0 0 0 0 3 13 10 19 23 32 55
19 19 16 19 13 13 16 16 6 10 3 3 3 3 0 3 3 3 3 0 0 0 0 0 0 0 0 0 0 0 0 0 0 0 0 0 0 0 3 13 19 19 13
23 19 19 16 13 10 10 3 0 0 0 0 0 0 0 0 0 0 0 0 0 0 0 0 0 0 0 0 0 0 0 0 0 0 0 0 0 0 0 6 16 16 10
10 6 10 6 6 6 6 6 3 3 3 0 0 0 0 0 0 0 0 0 0 3 3 0 0 0 0 0 0 0 0 0 0 0 0 0 0 0 0 0 3 13 16
3 6 6 6 3 6 3 3 3 3 0 0 0 0 0 0 0 0 0 0 0 0 0 0 0 0 0 0 0 0 0 0 0 0 0 0 0 0 0 0 0 0 10
3 3 3 3 3 3 3 3 0 0 0 0 0 0 0 0 0 0 0 0 0 0 0 0 0 0 0 0 0 0 0 0 0 0 0 0 0 0 0 0 0 0 3